Location: Mohawk View
(42.7837°N, 73.7885°W)
Time: 11:52:05
(UTC+00:00)

Cosmos 2322 Rocket - Pass Details

Date: 17 June 2021
Orbit: 833 x 850 km, 71.0° (Epoch: 26 July)

Event Time Altitude Azimuth Distance (km) Brightness Sun altitude
Rises 01:04:06 0° 177° (S) 3,394 4.9 -5.0°
Reaches altitude 10° 01:06:43 10° 169° (S) 2,465 4.2 -5.4°
Maximum altitude 01:11:48 35° 105° (ESE) 1,336 2.8 -6.1°
Drops below altitude 10° 01:16:55 10° 41° (NE) 2,484 4.7 -6.8°
Sets 01:19:33 0° 33° (NNE) 3,424 5.5 -7.2°
